CST,Max TemperatureF,Mean TemperatureF,Min TemperatureF,Max Dew PointF,MeanDew PointF,Min DewpointF,Max Humidity, Mean Humidity, Min Humidity, Max Sea Level PressureIn, Mean Sea Level PressureIn, Min Sea Level PressureIn, Max VisibilityMiles, Mean VisibilityMiles, Min VisibilityMiles, Max Wind SpeedMPH, Mean Wind SpeedMPH, Max Gust SpeedMPH,PrecipitationIn, CloudCover, Events, WindDirDegrees
2013-1-1,14,2,-9,10,-2,-15,86,76,62,30.24,30.18,30.05,10,10,1,9,4,,0.00,4,Snow,220
2013-1-2,28,14,1,28,12,-4,100,85,73,30.09,30.00,29.94,10,7,1,16,6,22,0.00,6,Snow,229
2013-1-3,24,15,6,19,6,1,92,79,67,30.28,30.22,30.09,10,9,3,18,13,29,0.00,2,Snow,286
2013-1-4,28,17,6,19,12,3,93,79,64,30.17,30.12,30.09,10,10,7,12,6,,0.00,0,,235
2013-1-5,26,16,5,19,12,1,93,81,69,30.11,29.97,29.85,10,9,3,21,6,28,0.00,1,Snow,241
2013-1-6,21,14,8,14,9,3,92,81,68,30.23,30.15,30.02,10,10,7,14,10,20,0.00,1,,263
2013-1-7,32,23,12,27,20,10,93,79,69,30.09,29.98,29.93,10,8,0,23,11,30,0.00,1,Fog,206
2013-1-8,35,32,28,32,29,23,100,86,80,29.99,29.89,29.79,10,7,0,17,4,24,0.00,3,Fog,193
2013-1-9,35,29,23,28,25,19,100,83,70,30.37,30.24,29.99,10,10,10,15,7,22,0.00,1,,226
2013-1-10,35,30,26,32,27,21,100,84,60,30.34,30.05,29.72,10,7,1,18,10,25,0.04,4,Rain,133
2013-1-11,39,36,32,37,34,32,100,96,93,29.70,29.52,29.42,10,2,0,15,9,,0.00,8,Fog,159
2013-1-12,35,22,10,36,10,3,100,71,58,30.06,29.89,29.49,10,9,3,23,16,32,0.00,7,Snow,279
2013-1-13,12,8,3,3,0,-4,85,70,62,30.25,30.11,30.01,10,10,7,17,11,20,0.00,5,,305
2013-1-14,23,14,5,12,7,0,93,77,59,30.38,30.33,30.25,10,10,10,10,4,,0.00,1,,235
2013-1-15,32,22,12,19,13,7,86,71,55,30.30,30.16,29.94,10,10,10,17,8,22,0.00,1,,201
2013-1-16,41,29,17,32,23,12,93,80,63,30.19,29.90,29.76,10,10,3,21,14,26,0.00,5,Snow,272
2013-1-17,30,19,8,19,9,0,80,68,46,30.40,30.33,30.22,10,10,10,14,9,17,0.00,4,,301
2013-1-18,44,34,24,32,28,19,100,78,61,30.25,29.93,29.78,10,10,10,23,12,32,0.00,0,,204
2013-1-19,42,25,8,32,23,-2,93,76,62,30.21,29.89,29.74,10,10,7,33,12,44,0.00,4,,285
2013-1-20,12,8,3,5,-1,-4,79,70,61,30.37,30.29,30.23,10,9,2,18,14,26,0.00,5,Snow,306
2013-1-21,5,-1,-7,-6,-11,-18,78,63,55,30.34,30.28,30.25,10,10,3,21,15,30,0.00,1,,302
2013-1-22,12,4,-5,5,-6,-11,79,67,48,30.36,30.29,30.21,10,10,4,9,5,,0.00,3,Snow,273
2013-1-23,21,10,0,10,3,-11,79,65,49,30.51,30.24,30.11,10,10,5,25,11,32,0.00,5,Snow,299
2013-1-24,17,8,0,1,-9,-15,66,48,29,30.59,30.42,30.16,10,10,10,22,10,25,0.00,2,,114
2013-1-25,28,16,5,18,4,-2,80,63,42,30.26,30.10,29.99,10,10,3,29,12,39,0.00,3,Snow,284
2013-1-26,28,14,1,12,3,-4,78,59,40,30.30,30.21,30.10,10,10,10,20,8,24,0.00,4,,133
2013-1-27,32,28,24,32,26,12,100,84,55,30.09,29.89,29.75,10,5,1,17,10,22,0.04,7,Rain-Snow,133
2013-1-28,33,30,28,34,31,28,100,98,93,29.89,29.77,29.56,5,0,0,12,2,,0.02,8,Fog-Snow,118
2013-1-29,33,32,30,32,31,27,100,95,86,29.65,29.59,29.51,10,5,0,28,9,34,0.00,8,Fog-Rain-Snow,333
2013-1-30,30,19,8,27,13,1,93,79,67,29.78,29.65,29.53,10,7,1,28,21,34,0.00,8,Snow,324
2013-1-31,6,0,-5,1,-8,-15,79,68,61,30.28,30.02,29.78,10,9,3,28,18,36,0.00,3,,307